SHT2Z EGLL-EGCC

Flight info

Callsign SHT2Z
Flight time 0h 32m
Altitude 18000
Route ULTIB1J ULTIB T420 ELVOS ELVOS1M
Aircraft A320/M-SDE3FGHIJ1RWXY/SB1

Departure

Time 2026-05-07 18:23
Airport London Heathrow Airport (EGLL)

Arrival

Time 2026-05-07 18:55
Airport Manchester Airport (EGCC)
Time Latitude Longitude Altitude Speed Heading
2026-05-07 18:01 51.47405 -0.48829 86 ft 0 kts 180°
2026-05-07 18:14 51.47414 -0.48829 90 ft 4 kts 180°
2026-05-07 18:14 51.47441 -0.48829 88 ft 4 kts 180°
2026-05-07 18:14 51.47462 -0.48830 86 ft 4 kts 166°
2026-05-07 18:14 51.47482 -0.48849 88 ft 4 kts 116°
2026-05-07 18:15 51.47489 -0.48886 88 ft 3 kts 103°
2026-05-07 18:15 51.47490 -0.48894 86 ft 0 kts 103°
2026-05-07 18:17 51.47490 -0.48889 86 ft 1 kts 103°
2026-05-07 18:18 51.47488 -0.48875 89 ft 4 kts 101°
2026-05-07 18:18 51.47486 -0.48767 87 ft 12 kts 90°
2026-05-07 18:18 51.47487 -0.48624 89 ft 14 kts 90°
2026-05-07 18:18 51.47487 -0.48466 88 ft 12 kts 90°
2026-05-07 18:19 51.47445 -0.48358 87 ft 14 kts 174°
2026-05-07 18:19 51.47341 -0.48359 86 ft 16 kts 180°
2026-05-07 18:19 51.47221 -0.48357 86 ft 18 kts 179°
2026-05-07 18:19 51.47099 -0.48356 88 ft 17 kts 180°
2026-05-07 18:20 51.46976 -0.48357 88 ft 18 kts 180°
2026-05-07 18:20 51.46870 -0.48354 88 ft 14 kts 179°
2026-05-07 18:20 51.46771 -0.48356 86 ft 15 kts 192°
2026-05-07 18:20 51.46742 -0.48501 86 ft 16 kts 271°
2026-05-07 18:21 51.46741 -0.48669 86 ft 14 kts 268°
2026-05-07 18:21 51.46679 -0.48746 87 ft 13 kts 182°
2026-05-07 18:21 51.46586 -0.48775 88 ft 15 kts 196°
2026-05-07 18:21 51.46494 -0.48747 87 ft 13 kts 136°
2026-05-07 18:22 51.46478 -0.48613 86 ft 14 kts 92°
2026-05-07 18:22 51.46478 -0.48419 87 ft 45 kts 89°
2026-05-07 18:22 51.46481 -0.47132 87 ft 124 kts 90°
2026-05-07 18:22 51.46487 -0.45525 223 ft 152 kts 90°
2026-05-07 18:23 51.46503 -0.43845 807 ft 152 kts 92°
2026-05-07 18:23 51.46531 -0.42121 1336 ft 161 kts 86°
2026-05-07 18:23 51.46952 -0.40327 1627 ft 184 kts 55°
2026-05-07 18:23 51.47827 -0.38671 1936 ft 205 kts 50°
2026-05-07 18:24 51.48799 -0.36822 2218 ft 229 kts 51°
2026-05-07 18:24 51.49890 -0.34750 2525 ft 256 kts 51°
2026-05-07 18:24 51.51068 -0.32516 3278 ft 264 kts 50°
2026-05-07 18:24 51.52225 -0.30258 4338 ft 263 kts 57°
2026-05-07 18:25 51.52896 -0.27521 5229 ft 265 kts 75°
2026-05-07 18:25 51.53625 -0.24791 5795 ft 270 kts 53°
2026-05-07 18:25 51.55042 -0.22855 5969 ft 270 kts 25°
2026-05-07 18:25 51.56867 -0.22297 6004 ft 270 kts 354°
2026-05-07 18:26 51.58688 -0.23018 6032 ft 271 kts 345°
2026-05-07 18:26 51.60530 -0.23689 6036 ft 271 kts 348°
2026-05-07 18:26 51.62334 -0.24571 6036 ft 271 kts 335°
2026-05-07 18:26 51.64001 -0.25995 6037 ft 271 kts 330°
2026-05-07 18:27 51.65700 -0.27565 6039 ft 298 kts 329°
2026-05-07 18:27 51.67522 -0.29302 6739 ft 299 kts 329°
2026-05-07 18:27 51.69259 -0.30976 8090 ft 285 kts 328°
2026-05-07 18:27 51.70379 -0.32059 8751 ft 284 kts 328°
2026-05-07 18:28 51.72663 -0.34275 9873 ft 289 kts 327°
2026-05-07 18:28 51.74408 -0.35974 10403 ft 302 kts 327°
2026-05-07 18:28 51.76272 -0.37794 10598 ft 325 kts 327°
2026-05-07 18:28 51.78268 -0.39737 10898 ft 341 kts 327°
2026-05-07 18:29 51.80316 -0.41721 11504 ft 347 kts 327°
2026-05-07 18:29 51.82398 -0.43740 12160 ft 351 kts 327°
2026-05-07 18:29 51.84509 -0.45788 12815 ft 356 kts 327°
2026-05-07 18:29 51.86646 -0.47863 13473 ft 360 kts 327°
2026-05-07 18:30 51.88805 -0.49960 14096 ft 365 kts 327°
2026-05-07 18:30 51.90992 -0.52085 14686 ft 368 kts 327°
2026-05-07 18:30 51.93195 -0.54227 15304 ft 370 kts 327°
2026-05-07 18:30 51.95412 -0.56386 15909 ft 373 kts 327°
2026-05-07 18:31 51.97643 -0.58557 16527 ft 375 kts 327°
2026-05-07 18:31 51.99856 -0.60716 17144 ft 377 kts 327°
2026-05-07 18:31 52.02111 -0.62923 17758 ft 380 kts 327°
2026-05-07 18:31 52.04408 -0.65176 17997 ft 381 kts 327°
2026-05-07 18:32 52.06680 -0.67411 18043 ft 393 kts 327°
2026-05-07 18:32 52.09066 -0.69761 18041 ft 397 kts 327°
2026-05-07 18:32 52.11404 -0.72064 18040 ft 399 kts 327°
2026-05-07 18:32 52.13803 -0.74430 18040 ft 399 kts 327°
2026-05-07 18:33 52.16174 -0.76772 18040 ft 399 kts 327°
2026-05-07 18:33 52.18546 -0.79115 18032 ft 399 kts 327°
2026-05-07 18:33 52.20919 -0.81459 18032 ft 399 kts 327°
2026-05-07 18:33 52.23292 -0.83803 18032 ft 399 kts 327°
2026-05-07 18:34 52.25643 -0.86129 18032 ft 399 kts 327°
2026-05-07 18:34 52.28007 -0.88472 18033 ft 399 kts 327°
2026-05-07 18:34 52.30377 -0.90828 18037 ft 399 kts 327°
2026-05-07 18:34 52.32747 -0.93190 18034 ft 399 kts 327°
2026-05-07 18:35 52.35123 -0.95563 18042 ft 399 kts 327°
2026-05-07 18:35 52.37489 -0.97928 18040 ft 399 kts 327°
2026-05-07 18:35 52.39862 -1.00298 18047 ft 400 kts 327°
2026-05-07 18:35 52.42244 -1.02676 18046 ft 400 kts 327°
2026-05-07 18:36 52.43812 -1.04244 18031 ft 400 kts 327°
2026-05-07 18:36 52.46182 -1.06615 18028 ft 399 kts 327°
2026-05-07 18:36 52.48552 -1.08992 18025 ft 399 kts 327°
2026-05-07 18:36 52.50927 -1.11378 18022 ft 399 kts 327°
2026-05-07 18:37 52.53295 -1.13763 18031 ft 399 kts 327°
2026-05-07 18:37 52.55663 -1.16152 18022 ft 399 kts 327°
2026-05-07 18:37 52.58031 -1.18541 18016 ft 399 kts 327°
2026-05-07 18:37 52.60402 -1.20929 18011 ft 399 kts 327°
2026-05-07 18:38 52.62771 -1.23321 18004 ft 400 kts 327°
2026-05-07 18:38 52.65140 -1.25720 18005 ft 400 kts 326°
2026-05-07 18:38 52.67506 -1.28122 18003 ft 400 kts 326°
2026-05-07 18:38 52.69873 -1.30528 18005 ft 400 kts 326°
2026-05-07 18:39 52.72240 -1.32937 18006 ft 400 kts 326°
2026-05-07 18:39 52.74608 -1.35346 18035 ft 400 kts 326°
2026-05-07 18:39 52.76976 -1.37757 18040 ft 400 kts 326°
2026-05-07 18:39 52.79313 -1.40141 17790 ft 389 kts 326°
2026-05-07 18:40 52.81586 -1.42462 17519 ft 379 kts 326°
2026-05-07 18:40 52.83796 -1.44724 17256 ft 369 kts 326°
2026-05-07 18:40 52.85955 -1.46937 16879 ft 363 kts 326°
2026-05-07 18:40 52.88095 -1.49134 16431 ft 360 kts 326°
2026-05-07 18:41 52.90214 -1.51311 15949 ft 357 kts 326°
2026-05-07 18:41 52.92320 -1.53479 15481 ft 355 kts 326°
2026-05-07 18:41 52.94409 -1.55629 15027 ft 353 kts 326°
2026-05-07 18:41 52.96490 -1.57773 14562 ft 351 kts 326°
2026-05-07 18:42 52.98562 -1.59910 14103 ft 350 kts 326°
2026-05-07 18:42 53.00601 -1.62018 13649 ft 348 kts 326°
2026-05-07 18:42 53.02646 -1.64138 13177 ft 346 kts 325°
2026-05-07 18:42 53.04662 -1.66300 12731 ft 340 kts 320°
2026-05-07 18:43 53.06391 -1.68876 11985 ft 330 kts 308°
2026-05-07 18:43 53.07880 -1.71755 11246 ft 324 kts 307°
2026-05-07 18:43 53.09294 -1.74494 11094 ft 301 kts 307°
2026-05-07 18:43 53.10574 -1.76965 10740 ft 290 kts 307°
2026-05-07 18:44 53.11890 -1.79454 10220 ft 285 kts 313°
2026-05-07 18:44 53.13571 -1.81180 9693 ft 288 kts 340°
2026-05-07 18:44 53.15541 -1.81822 9059 ft 288 kts 349°
2026-05-07 18:44 53.17473 -1.82215 8849 ft 272 kts 351°
2026-05-07 18:45 53.19328 -1.82577 8399 ft 267 kts 351°
2026-05-07 18:45 53.21164 -1.82939 7896 ft 264 kts 351°
2026-05-07 18:45 53.22982 -1.83311 7393 ft 262 kts 351°
2026-05-07 18:45 53.24761 -1.83857 6949 ft 260 kts 342°
2026-05-07 18:46 53.26494 -1.84688 6485 ft 258 kts 341°
2026-05-07 18:46 53.28206 -1.85559 5956 ft 257 kts 340°
2026-05-07 18:46 53.29917 -1.86443 5548 ft 257 kts 340°
2026-05-07 18:46 53.31620 -1.87333 5242 ft 257 kts 340°
2026-05-07 18:47 53.33319 -1.88229 5025 ft 254 kts 340°
2026-05-07 18:47 53.35010 -1.89130 5005 ft 255 kts 340°
2026-05-07 18:47 53.36651 -1.90006 5004 ft 248 kts 340°
2026-05-07 18:47 53.38289 -1.90876 5006 ft 247 kts 340°
2026-05-07 18:48 53.39925 -1.91755 5003 ft 247 kts 340°
2026-05-07 18:48 53.41560 -1.92631 4973 ft 246 kts 340°
2026-05-07 18:48 53.43183 -1.93491 4634 ft 245 kts 340°
2026-05-07 18:48 53.44804 -1.94363 4283 ft 244 kts 340°
2026-05-07 18:49 53.46412 -1.95242 4050 ft 240 kts 340°
2026-05-07 18:49 53.47923 -1.96224 3992 ft 225 kts 323°
2026-05-07 18:49 53.48853 -1.98087 3989 ft 200 kts 280°
2026-05-07 18:49 53.48718 -2.00238 4046 ft 184 kts 234°
2026-05-07 18:50 53.47824 -2.01712 3906 ft 180 kts 219°
2026-05-07 18:50 53.46996 -2.03286 3693 ft 179 kts 228°
2026-05-07 18:50 53.46221 -2.04916 3465 ft 179 kts 227°
2026-05-07 18:50 53.45448 -2.06536 3232 ft 175 kts 228°
2026-05-07 18:51 53.44711 -2.08079 2997 ft 163 kts 228°
2026-05-07 18:51 53.44014 -2.09535 2777 ft 157 kts 227°
2026-05-07 18:51 53.43335 -2.10950 2582 ft 155 kts 227°
2026-05-07 18:51 53.42660 -2.12356 2378 ft 155 kts 227°
2026-05-07 18:52 53.41984 -2.13762 2163 ft 155 kts 227°
2026-05-07 18:52 53.41311 -2.15164 1951 ft 154 kts 227°
2026-05-07 18:52 53.40640 -2.16562 1741 ft 154 kts 226°
2026-05-07 18:52 53.39965 -2.17964 1518 ft 154 kts 227°
2026-05-07 18:53 53.39298 -2.19352 1332 ft 148 kts 227°
2026-05-07 18:53 53.38685 -2.20629 1115 ft 138 kts 228°
2026-05-07 18:53 53.38084 -2.21875 918 ft 137 kts 228°
2026-05-07 18:53 53.37485 -2.23116 730 ft 137 kts 228°
2026-05-07 18:54 53.36889 -2.24360 523 ft 138 kts 229°
2026-05-07 18:54 53.36292 -2.25612 365 ft 138 kts 229°
2026-05-07 18:54 53.35688 -2.26847 268 ft 131 kts 229°
2026-05-07 18:54 53.35224 -2.27808 238 ft 58 kts 231°
2026-05-07 18:55 53.35051 -2.28167 233 ft 32 kts 233°
2026-05-07 18:55 53.34963 -2.28477 231 ft 27 kts 255°
2026-05-07 18:55 53.34953 -2.28709 231 ft 16 kts 296°
2026-05-07 18:55 53.35017 -2.28730 229 ft 9 kts 39°
2026-05-07 18:56 53.35059 -2.28656 229 ft 9 kts 51°
2026-05-07 18:56 53.35099 -2.28571 229 ft 8 kts 51°
2026-05-07 18:56 53.35133 -2.28504 227 ft 9 kts 50°
2026-05-07 18:56 53.35175 -2.28416 228 ft 9 kts 51°
2026-05-07 18:57 53.35218 -2.28327 232 ft 11 kts 50°
2026-05-07 18:57 53.35286 -2.28228 232 ft 14 kts 34°
2026-05-07 18:57 53.35377 -2.28171 237 ft 14 kts
2026-05-07 18:57 53.35476 -2.28134 234 ft 17 kts 21°
2026-05-07 18:58 53.35571 -2.28011 237 ft 17 kts 52°
2026-05-07 18:58 53.35654 -2.27893 242 ft 14 kts 11°
2026-05-07 18:58 53.35745 -2.27874 247 ft 12 kts
2026-05-07 18:58 53.35813 -2.27863 251 ft 9 kts
2026-05-07 18:59 53.35866 -2.27856 254 ft 7 kts
2026-05-07 18:59 53.35936 -2.27850 255 ft 13 kts 352°
2026-05-07 18:59 53.36015 -2.27937 255 ft 15 kts 318°
2026-05-07 18:59 53.36100 -2.28061 255 ft 17 kts 318°
2026-05-07 19:00 53.36191 -2.28211 255 ft 20 kts 315°
2026-05-07 19:00 53.36295 -2.28387 255 ft 22 kts 314°
2026-05-07 19:00 53.36413 -2.28497 255 ft 18 kts 331°
2026-05-07 19:00 53.36511 -2.28644 255 ft 20 kts 315°
2026-05-07 19:01 53.36601 -2.28840 255 ft 21 kts 304°
2026-05-07 19:01 53.36705 -2.29019 255 ft 21 kts 313°
2026-05-07 19:01 53.36796 -2.29053 255 ft 14 kts 16°
2026-05-07 19:01 53.36878 -2.28967 255 ft 12 kts 44°
2026-05-07 19:02 53.36902 -2.28898 255 ft 6 kts 111°
2026-05-07 19:02 53.36871 -2.28846 255 ft 6 kts 134°
2026-05-07 19:02 53.36863 -2.28832 255 ft 0 kts 133°